QPF
0.06 0.05 0.05 0.06 0.06 0.06 0.07 0.07 0.07 0.08 0.08 0.06 0.07 0.09 0.10 0.12 0.12 0.05 0.02 0.02 0.01 0.01 0.00 0.00 0.01 0.00 0.00 0.01 0.01 0.01 0.01 0.02 0.02 0.03 0.04 0.05 0.06 0.07
0.06 0.05 0.05 0.06 0.06 0.06 0.06 0.06 0.07 0.08 0.07 0.06 0.05 0.06 0.07 0.06 0.06 0.04 0.02 0.02 0.02 0.01 0.01 0.01 0.00 0.01 0.01 0.00 0.01 0.01 0.02 0.02 0.03 0.03 0.04 0.04 0.05 0.06
0.05 0.06 0.06 0.06 0.07 0.07 0.07 0.07 0.08 0.10 0.09 0.08 0.06 0.04 0.05 0.04 0.05 0.04 0.03 0.02 0.01 0.01 0.01 0.01 0.00 0.01 0.01 0.01 0.02 0.02 0.03 0.03 0.04 0.05 0.06 0.06 0.07 0.08
0.05 0.06 0.08 0.07 0.07 0.08 0.07 0.08 0.09 0.09 0.09 0.09 0.08 0.05 0.05 0.04 0.03 0.03 0.03 0.02 0.02 0.01 0.01 0.01 0.00 0.01 0.01 0.02 0.03 0.03 0.03 0.03 0.03 0.04 0.05 0.07 0.09 0.09
0.05 0.07 0.08 0.08 0.08 0.08 0.07 0.08 0.09 0.08 0.09 0.08 0.07 0.05 0.04 0.04 0.04 0.03 0.02 0.03 0.03 0.02 0.01 0.01 0.01 0.01 0.01 0.02 0.03 0.03 0.03 0.03 0.03 0.03 0.03 0.04 0.06 0.07
0.05 0.07 0.08 0.06 0.07 0.07 0.06 0.07 0.07 0.08 0.09 0.08 0.07 0.05 0.05 0.05 0.05 0.03 0.03 0.05 0.04 0.03 0.02 0.01 0.02 0.03 0.03 0.03 0.03 0.03 0.03 0.03 0.02 0.02 0.02 0.03 0.04 0.05
0.04 0.05 0.04 0.04 0.04 0.07 0.06 0.06 0.06 0.07 0.08 0.08 0.07 0.06 0.05 0.05 0.05 0.04 0.05 0.06 0.07 0.05 0.03 0.03 0.02 0.03 0.05 0.05 0.04 0.03 0.03 0.02 0.02 0.02 0.02 0.02 0.03 0.03
0.05 0.05 0.03 0.03 0.02 0.04 0.05 0.04 0.04 0.05 0.06 0.07 0.07 0.06 0.06 0.06 0.06 0.05 0.06 0.07 0.08 0.06 0.04 0.03 0.03 0.03 0.04 0.04 0.03 0.02 0.02 0.02 0.02 0.01 0.01 0.01 0.02 0.02
0.04 0.04 0.03 0.01 0.02 0.03 0.04 0.02 0.03 0.03 0.03 0.05 0.07 0.08 0.09 0.07 0.07 0.07 0.07 0.07 0.07 0.05 0.04 0.03 0.03 0.03 0.02 0.01 0.01 0.01 0.01 0.02 0.02 0.02 0.01 0.01 0.01 0.01
0.02 0.03 0.03 0.02 0.01 0.02 0.03 0.04 0.03 0.03 0.02 0.03 0.07 0.08 0.07 0.06 0.07 0.07 0.05 0.05 0.06 0.05 0.04 0.04 0.04 0.03 0.02 0.01 0.01 0.01 0.01 0.02 0.03 0.03 0.02 0.02 0.01 0.01
0.02 0.01 0.02 0.01 0.01 0.00 0.02 0.04 0.05 0.04 0.01 0.01 0.02 0.04 0.05 0.04 0.05 0.05 0.06 0.07 0.07 0.05 0.04 0.03 0.03 0.02 0.02 0.02 0.01 0.02 0.03 0.04 0.03 0.03 0.03 0.02 0.02 0.01
0.02 0.01 0.01 0.01 0.00 0.01 0.03 0.04 0.04 0.04 0.02 0.02 0.02 0.03 0.04 0.04 0.04 0.05 0.06 0.05 0.05 0.05 0.04 0.03 0.02 0.02 0.02 0.02 0.01 0.03 0.04 0.03 0.02 0.02 0.02 0.02 0.01 0.01
0.02 0.02 0.01 0.00 0.00 0.00 0.01 0.01 0.02 0.01 0.01 0.02 0.04 0.04 0.04 0.05 0.06 0.06 0.07 0.06 0.05 0.04 0.04 0.03 0.02 0.02 0.03 0.02 0.01 0.01 0.01 0.01 0.01 0.01 0.01 0.02 0.02 0.01
0.02 0.02 0.01 0.00 0.00 0.00 0.00 0.00 0.01 0.01 0.01 0.02 0.03 0.04 0.04 0.04 0.05 0.05 0.04 0.04 0.04 0.03 0.03 0.03 0.03 0.02 0.02 0.02 0.01 0.01 0.01 0.01 0.00 0.00 0.00 0.01 0.01 0.01
0.01 0.01 0.00 0.00 0.00 0.00 0.00 0.01 0.02 0.02 0.02 0.02 0.03 0.03 0.04 0.03 0.03 0.03 0.03 0.03 0.03 0.02 0.02 0.03 0.03 0.03 0.03 0.03 0.02 0.01 0.01 0.01 0.01 0.01 0.01 0.00 0.00 0.00
0.02 0.01 0.00 0.00 0.00 0.01 0.01 0.01 0.01 0.02 0.02 0.03 0.03 0.02 0.03 0.03 0.02 0.02 0.02 0.02 0.03 0.02 0.03 0.03 0.02 0.02 0.03 0.03 0.03 0.02 0.02 0.01 0.01 0.01 0.01 0.01 0.00 0.00
0.01 0.02 0.02 0.01 0.01 0.01 0.01 0.02 0.02 0.03 0.03 0.03 0.03 0.02 0.02 0.01 0.02 0.02 0.01 0.01 0.02 0.03 0.03 0.03 0.02 0.02 0.02 0.03 0.03 0.02 0.02 0.02 0.01 0.01 0.01 0.01 0.01 0.01
0.01 0.03 0.03 0.02 0.02 0.02 0.03 0.03 0.03 0.04 0.04 0.04 0.04 0.04 0.03 0.02 0.02 0.02 0.02 0.01 0.01 0.02 0.02 0.02 0.03 0.03 0.02 0.02 0.01 0.01 0.02 0.01 0.01 0.01 0.01 0.01 0.01 0.01
0.02 0.03 0.03 0.03 0.03 0.03 0.04 0.03 0.03 0.03 0.03 0.04 0.04 0.04 0.03 0.03 0.02 0.02 0.02 0.02 0.02 0.01 0.01 0.02 0.02 0.02 0.03 0.03 0.02 0.01 0.01 0.01 0.01 0.01 0.01 0.01 0.01 0.01
0.02 0.02 0.03 0.04 0.04 0.04 0.04 0.04 0.03 0.03 0.03 0.04 0.04 0.03 0.03 0.03 0.03 0.02 0.02 0.02 0.02 0.02 0.01 0.01 0.01 0.01 0.01 0.02 0.02 0.01 0.00 0.00 0.01 0.01 0.01 0.01 0.01 0.01
0.02 0.01 0.03 0.04 0.04 0.04 0.05 0.04 0.04 0.04 0.04 0.03 0.03 0.03 0.03 0.03 0.03 0.02 0.01 0.02 0.02 0.01 0.01 0.01 0.00 0.00 0.01 0.01 0.01 0.01 0.01 0.01 0.01 0.01 0.01 0.01 0.01 0.01
0.02 0.02 0.03 0.03 0.02 0.01 0.01 0.02 0.02 0.03 0.03 0.03 0.03 0.03 0.03 0.03 0.02 0.01 0.01 0.01 0.01 0.02 0.01 0.01 0.01 0.01 0.01 0.02 0.02 0.01 0.01 0.01 0.01 0.01 0.01 0.01 0.01 0.01
0.03 0.03 0.03 0.02 0.01 0.01 0.01 0.01 0.02 0.02 0.02 0.02 0.02 0.03 0.02 0.02 0.02 0.02 0.02 0.02 0.02 0.02 0.02 0.02 0.01 0.01 0.01 0.02 0.02 0.01 0.01 0.01 0.01 0.01 0.01 0.01 0.01 0.01
MSLP
1013.90 1013.62 1013.35 1013.07 1012.78 1012.46 1012.12 1011.78 1011.43 1011.11 1010.81 1010.55 1010.32 1010.14 1009.98 1009.86 1009.77 1009.72 1009.72 1009.79 1009.92 1010.13 1010.41 1010.74 1011.09 1011.46 1011.80 1012.10 1012.37 1012.59 1012.80 1013.01 1013.25 1013.54 1013.88 1014.31 1014.81 1015.37
1013.32 1012.99 1012.68 1012.38 1012.09 1011.80 1011.52 1011.24 1010.98 1010.75 1010.55 1010.39 1010.26 1010.16 1010.09 1010.02 1009.98 1009.97 1009.99 1010.05 1010.18 1010.37 1010.62 1010.91 1011.24 1011.57 1011.90 1012.20 1012.48 1012.73 1012.98 1013.23 1013.51 1013.84 1014.22 1014.66 1015.16 1015.71
1012.74 1012.36 1012.01 1011.68 1011.38 1011.11 1010.86 1010.64 1010.46 1010.32 1010.23 1010.18 1010.17 1010.18 1010.20 1010.23 1010.26 1010.31 1010.38 1010.47 1010.60 1010.79 1011.01 1011.28 1011.57 1011.88 1012.18 1012.48 1012.76 1013.03 1013.31 1013.60 1013.92 1014.27 1014.67 1015.12 1015.62 1016.15
1012.25 1011.82 1011.42 1011.07 1010.75 1010.47 1010.25 1010.07 1009.95 1009.89 1009.89 1009.94 1010.03 1010.15 1010.28 1010.42 1010.55 1010.68 1010.82 1010.97 1011.13 1011.33 1011.55 1011.79 1012.06 1012.33 1012.61 1012.89 1013.16 1013.45 1013.74 1014.06 1014.40 1014.78 1015.20 1015.65 1016.13 1016.63
1011.90 1011.43 1011.00 1010.61 1010.26 1009.97 1009.74 1009.58 1009.49 1009.47 1009.53 1009.65 1009.83 1010.05 1010.28 1010.52 1010.76 1011.00 1011.22 1011.44 1011.66 1011.88 1012.12 1012.35 1012.60 1012.85 1013.10 1013.35 1013.61 1013.89 1014.20 1014.53 1014.90 1015.30 1015.73 1016.18 1016.64 1017.10
1011.70 1011.21 1010.75 1010.32 1009.94 1009.62 1009.36 1009.18 1009.08 1009.07 1009.15 1009.31 1009.54 1009.83 1010.14 1010.48 1010.82 1011.15 1011.47 1011.78 1012.06 1012.34 1012.59 1012.84 1013.07 1013.30 1013.53 1013.76 1014.01 1014.28 1014.59 1014.93 1015.32 1015.74 1016.18 1016.63 1017.08 1017.50
1011.62 1011.12 1010.64 1010.18 1009.77 1009.40 1009.10 1008.88 1008.74 1008.70 1008.76 1008.91 1009.16 1009.47 1009.84 1010.24 1010.66 1011.09 1011.50 1011.88 1012.24 1012.57 1012.86 1013.13 1013.36 1013.58 1013.79 1014.01 1014.24 1014.51 1014.82 1015.17 1015.57 1016.01 1016.46 1016.92 1017.35 1017.76
1011.60 1011.10 1010.62 1010.15 1009.70 1009.29 1008.93 1008.65 1008.45 1008.35 1008.36 1008.48 1008.69 1009.01 1009.39 1009.83 1010.30 1010.78 1011.26 1011.72 1012.14 1012.52 1012.85 1013.13 1013.38 1013.59 1013.80 1014.00 1014.23 1014.49 1014.81 1015.17 1015.59 1016.04 1016.50 1016.97 1017.40 1017.79
1011.58 1011.11 1010.63 1010.15 1009.68 1009.24 1008.83 1008.49 1008.23 1008.06 1008.00 1008.05 1008.22 1008.50 1008.87 1009.31 1009.79 1010.30 1010.82 1011.31 1011.77 1012.18 1012.54 1012.84 1013.10 1013.31 1013.51 1013.72 1013.94 1014.21 1014.53 1014.90 1015.33 1015.80 1016.28 1016.75 1017.19 1017.56
1011.53 1011.10 1010.64 1010.17 1009.70 1009.24 1008.80 1008.41 1008.10 1007.87 1007.74 1007.74 1007.84 1008.07 1008.39 1008.79 1009.26 1009.76 1010.27 1010.77 1011.23 1011.65 1012.00 1012.31 1012.56 1012.78 1012.98 1013.18 1013.41 1013.68 1014.01 1014.39 1014.83 1015.31 1015.80 1016.27 1016.70 1017.07
1011.44 1011.05 1010.62 1010.18 1009.73 1009.27 1008.83 1008.43 1008.09 1007.82 1007.65 1007.59 1007.64 1007.80 1008.07 1008.42 1008.83 1009.28 1009.75 1010.21 1010.64 1011.03 1011.37 1011.65 1011.89 1012.10 1012.29 1012.49 1012.73 1013.00 1013.33 1013.72 1014.16 1014.63 1015.12 1015.58 1015.99 1016.33
1011.32 1010.97 1010.59 1010.19 1009.77 1009.34 1008.93 1008.54 1008.20 1007.93 1007.75 1007.66 1007.67 1007.78 1007.99 1008.27 1008.61 1008.99 1009.39 1009.78 1010.14 1010.48 1010.76 1011.01 1011.22 1011.41 1011.59 1011.78 1012.01 1012.28 1012.61 1012.99 1013.41 1013.86 1014.32 1014.75 1015.12 1015.42
1011.19 1010.88 1010.54 1010.18 1009.81 1009.43 1009.06 1008.72 1008.42 1008.18 1008.01 1007.92 1007.92 1008.00 1008.15 1008.37 1008.63 1008.93 1009.23 1009.53 1009.81 1010.07 1010.29 1010.48 1010.65 1010.81 1010.97 1011.15 1011.37 1011.63 1011.93 1012.29 1012.67 1013.08 1013.48 1013.85 1014.17 1014.42
1011.07 1010.77 1010.46 1010.15 1009.82 1009.50 1009.20 1008.92 1008.68 1008.49 1008.37 1008.30 1008.31 1008.37 1008.49 1008.65 1008.85 1009.06 1009.27 1009.47 1009.66 1009.83 1009.98 1010.11 1010.24 1010.36 1010.49 1010.65 1010.85 1011.08 1011.35 1011.66 1011.99 1012.33 1012.66 1012.95 1013.19 1013.37
1010.93 1010.64 1010.35 1010.06 1009.78 1009.51 1009.27 1009.06 1008.89 1008.77 1008.70 1008.68 1008.71 1008.78 1008.88 1009.00 1009.14 1009.27 1009.40 1009.53 1009.63 1009.72 1009.80 1009.88 1009.96 1010.04 1010.15 1010.28 1010.45 1010.64 1010.87 1011.12 1011.38 1011.63 1011.87 1012.07 1012.22 1012.31
1010.76 1010.46 1010.17 1009.89 1009.63 1009.40 1009.21 1009.06 1008.96 1008.90 1008.89 1008.92 1008.98 1009.06 1009.16 1009.26 1009.35 1009.43 1009.51 1009.56 1009.60 1009.63 1009.66 1009.69 1009.73 1009.79 1009.87 1009.97 1010.10 1010.25 1010.43 1010.61 1010.78 1010.95 1011.08 1011.18 1011.25 1011.26
1010.52 1010.20 1009.89 1009.60 1009.35 1009.14 1008.99 1008.88 1008.83 1008.83 1008.86 1008.93 1009.02 1009.12 1009.21 1009.30 1009.36 1009.41 1009.44 1009.45 1009.45 1009.45 1009.44 1009.44 1009.46 1009.50 1009.55 1009.63 1009.72 1009.83 1009.94 1010.05 1010.14 1010.22 1010.27 1010.28 1010.26 1010.22
1010.17 1009.82 1009.48 1009.18 1008.93 1008.73 1008.59 1008.51 1008.49 1008.51 1008.58 1008.67 1008.77 1008.88 1008.97 1009.05 1009.10 1009.12 1009.13 1009.12 1009.10 1009.08 1009.06 1009.05 1009.05 1009.07 1009.11 1009.16 1009.22 1009.28 1009.34 1009.38 1009.41 1009.41 1009.39 1009.33 1009.26 1009.17
1009.72 1009.33 1008.97 1008.66 1008.40 1008.20 1008.07 1008.00 1008.00 1008.03 1008.11 1008.20 1008.30 1008.40 1008.48 1008.54 1008.58 1008.59 1008.58 1008.57 1008.54 1008.51 1008.49 1008.48 1008.48 1008.49 1008.51 1008.53 1008.56 1008.58 1008.59 1008.59 1008.56 1008.51 1008.44 1008.35 1008.26 1008.15
1009.17 1008.77 1008.40 1008.08 1007.82 1007.63 1007.51 1007.45 1007.44 1007.48 1007.54 1007.62 1007.70 1007.78 1007.84 1007.87 1007.89 1007.89 1007.88 1007.86 1007.84 1007.81 1007.80 1007.78 1007.78 1007.78 1007.79 1007.79 1007.78 1007.77 1007.74 1007.70 1007.64 1007.57 1007.48 1007.39 1007.29 1007.21
1008.57 1008.17 1007.81 1007.51 1007.28 1007.11 1007.00 1006.95 1006.94 1006.97 1007.01 1007.07 1007.12 1007.15 1007.18 1007.19 1007.18 1007.17 1007.15 1007.12 1007.10 1007.08 1007.07 1007.06 1007.05 1007.03 1007.02 1007.00 1006.97 1006.93 1006.88 1006.82 1006.74 1006.67 1006.58 1006.50 1006.44 1006.38
1007.97 1007.59 1007.27 1007.02 1006.82 1006.68 1006.61 1006.57 1006.57 1006.59 1006.61 1006.63 1006.64 1006.64 1006.63 1006.61 1006.57 1006.54 1006.51 1006.48 1006.46 1006.44 1006.42 1006.41 1006.39 1006.36 1006.33 1006.28 1006.23 1006.17 1006.10 1006.03 1005.95 1005.89 1005.83 1005.78 1005.74 1005.73
1007.41 1007.09 1006.83 1006.62 1006.48 1006.40 1006.36 1006.35 1006.36 1006.37 1006.38 1006.38 1006.35 1006.31 1006.26 1006.21 1006.15 1006.10 1006.05 1006.02 1005.99 1005.97 1005.95 1005.92 1005.89 1005.85 1005.80 1005.73 1005.65 1005.57 1005.49 1005.42 1005.35 1005.30 1005.26 1005.24 1005.24 1005.25
Thickness
5612 5613 5613 5613 5613 5612 5611 5610 5607 5605 5607 5611 5613 5616 5617 5618 5619 5621 5624 5626 5629 5631 5633 5635 5636 5638 5640 5642 5644 5645 5646 5647 5647 5647 5647 5646 5645 5645
5608 5608 5608 5608 5609 5608 5607 5607 5606 5604 5604 5606 5608 5610 5611 5613 5614 5615 5617 5620 5622 5625 5627 5629 5631 5633 5634 5636 5637 5638 5640 5640 5641 5640 5640 5640 5640 5639
5605 5605 5604 5604 5604 5604 5604 5603 5603 5603 5601 5602 5604 5605 5606 5608 5609 5610 5612 5614 5617 5619 5621 5623 5625 5627 5628 5629 5630 5632 5633 5634 5634 5634 5634 5634 5633 5633
5600 5600 5600 5600 5599 5599 5599 5598 5599 5599 5598 5597 5598 5600 5601 5603 5605 5606 5608 5610 5612 5614 5616 5617 5619 5621 5622 5623 5624 5625 5626 5626 5626 5627 5627 5628 5627 5627
5596 5596 5596 5596 5595 5595 5595 5595 5596 5597 5596 5594 5594 5596 5598 5599 5600 5602 5605 5606 5608 5609 5611 5612 5614 5615 5616 5617 5618 5618 5619 5619 5620 5620 5620 5621 5620 5620
5593 5593 5593 5593 5592 5592 5592 5592 5592 5592 5592 5591 5591 5592 5593 5595 5596 5597 5599 5601 5604 5606 5607 5608 5609 5610 5611 5612 5612 5612 5613 5613 5613 5613 5614 5614 5614 5614
5590 5590 5590 5590 5590 5589 5590 5589 5589 5588 5588 5588 5589 5589 5590 5590 5592 5594 5596 5598 5600 5603 5603 5604 5605 5605 5606 5607 5607 5607 5607 5607 5608 5608 5608 5608 5608 5608
5586 5587 5588 5589 5588 5587 5587 5587 5586 5586 5586 5586 5587 5586 5587 5589 5590 5592 5593 5594 5596 5600 5601 5601 5604 5603 5604 5605 5605 5605 5604 5603 5603 5603 5603 5603 5604 5604
5584 5585 5587 5588 5587 5587 5587 5587 5587 5586 5586 5585 5585 5586 5587 5587 5588 5590 5591 5592 5594 5598 5598 5598 5601 5601 5603 5604 5603 5603 5601 5601 5600 5600 5600 5600 5600 5600
5584 5585 5585 5585 5585 5584 5585 5586 5587 5587 5587 5586 5586 5587 5588 5588 5588 5589 5590 5592 5595 5596 5597 5595 5597 5599 5602 5601 5601 5600 5599 5598 5598 5597 5597 5597 5597 5596
5584 5585 5585 5584 5583 5583 5584 5584 5585 5586 5587 5587 5587 5587 5588 5588 5587 5588 5589 5589 5590 5592 5595 5594 5596 5597 5598 5598 5598 5597 5597 5596 5595 5594 5594 5594 5594 5593
5583 5584 5584 5583 5582 5581 5581 5582 5583 5585 5586 5587 5587 5588 5589 5589 5588 5588 5588 5588 5588 5589 5593 5593 5593 5593 5593 5596 5596 5595 5594 5593 5593 5592 5592 5592 5591 5589
5582 5583 5583 5582 5581 5581 5580 5581 5582 5583 5585 5586 5588 5589 5590 5590 5590 5590 5590 5589 5588 5588 5592 5592 5591 5591 5590 5591 5594 5594 5594 5593 5592 5591 5591 5590 5589 5587
5580 5582 5582 5581 5581 5581 5581 5582 5583 5583 5585 5586 5587 5588 5590 5591 5592 5592 5592 5591 5591 5591 5592 5591 5589 5589 5588 5587 5589 5592 5592 5593 5592 5592 5591 5590 5588 5586
5582 5582 5582 5582 5582 5583 5584 5584 5584 5584 5586 5586 5587 5589 5591 5592 5593 5593 5593 5593 5592 5592 5592 5591 5590 5589 5588 5587 5587 5588 5589 5590 5591 5591 5590 5588 5587 5585
5583 5583 5583 5584 5585 5585 5587 5587 5587 5588 5588 5589 5589 5591 5592 5592 5592 5592 5592 5591 5590 5591 5592 5592 5591 5589 5587 5587 5586 5586 5587 5587 5589 5589 5588 5587 5587 5585
5580 5583 5585 5587 5588 5590 5591 5593 5593 5592 5591 5591 5591 5591 5591 5592 5592 5593 5592 5591 5590 5589 5590 5591 5592 5590 5589 5587 5585 5586 5586 5587 5587 5586 5584 5583 5584 5583
5580 5584 5586 5589 5590 5592 5593 5595 5595 5595 5595 5594 5593 5593 5592 5592 5592 5592 5592 5591 5589 5590 5589 5590 5589 5587 5586 5587 5587 5586 5585 5585 5585 5584 5583 5579 5579 5580
5582 5586 5589 5591 5592 5594 5595 5596 5596 5597 5597 5595 5594 5593 5592 5592 5591 5590 5590 5589 5589 5589 5589 5589 5587 5584 5581 5581 5587 5587 5584 5583 5582 5580 5579 5577 5576 5577
5590 5592 5594 5595 5596 5597 5597 5597 5598 5597 5597 5596 5595 5594 5593 5591 5590 5590 5589 5588 5587 5587 5587 5587 5586 5584 5581 5581 5583 5585 5584 5581 5578 5577 5576 5575 5574 5574
5598 5599 5599 5599 5599 5600 5599 5599 5598 5597 5597 5596 5595 5594 5593 5591 5590 5589 5588 5587 5585 5585 5585 5585 5587 5587 5586 5583 5581 5581 5581 5581 5579 5575 5573 5570 5568 5567
5601 5602 5602 5602 5602 5601 5601 5600 5599 5598 5596 5594 5593 5592 5591 5589 5588 5587 5586 5585 5584 5583 5583 5584 5585 5583 5581 5578 5576 5577 5577 5577 5576 5574 5571 5569 5564 5562
5603 5604 5604 5603 5603 5602 5601 5599 5598 5595 5594 5592 5590 5589 5588 5587 5586 5585 5584 5583 5582 5581 5581 5580 5580 5578 5577 5576 5574 5574 5573 5572 5570 5568 5567 5568 5565 5563